Location: Unspecified
(0.0000°N, 0.0000°E)
Time: 07:05:58
(UTC+02:00)

Cosmos 1340 - Visible Passes

Search period start: 23 May 2017 00:00
Search period end: 02 June 2017 00:00
Orbit: 506 x 509 km, 81.2° (Epoch: 21 May)

Date Brightness Start Highest point End Pass type
(mag) Time Alt. Az. Time Alt. Az. Time Alt. Az.
23 May 2.6 20:31:37 10° S 20:35:21 60° E 20:39:05 10° NNE visible
27 May 5.8 07:31:23 10° NE 07:34:02 18° E 07:36:41 10° SE visible
27 May 6.0 20:58:52 10° WSW 21:00:44 13° W 21:02:35 10° NW visible
28 May 6.0 07:14:40 10° NE 07:16:32 13° E 07:18:22 10° ESE visible
28 May 5.7 20:40:33 10° SW 20:43:13 18° W 20:45:52 10° NW visible
29 May 5.3 20:22:33 10° SW 20:25:42 25° W 20:28:51 10° NNW visible
